Wind_Speed
10 8 7 5 6 5 5 6 6 7 8 8 8 9 10 11 10 8 9 9 9 8
10 9 8 8 8 7 7 8 7 8 8 8 9 10 9 9 8 8 8 10 10 8
11 10 10 10 9 8 9 9 9 9 9 8 9 8 8 9 8 9 9 9 10 9
13 12 11 10 10 10 11 10 10 10 9 8 8 8 9 9 8 9 9 8 9 9
15 14 12 11 11 12 12 11 11 11 10 9 9 8 8 8 8 8 8 9 9 10
16 15 14 13 13 13 13 12 11 11 10 10 9 8 8 8 8 9 8 9 9 11
17 17 16 15 15 14 13 13 12 11 10 10 9 7 7 7 7 8 8 8 9 11
19 18 17 16 16 15 14 13 12 12 10 9 8 7 6 6 7 7 7 7 7 10
21 20 19 18 17 16 15 14 13 12 11 11 9 10 12 8 7 7 6 6 6 6
22 21 20 19 19 18 17 15 14 12 11 9 9 9 10 11 6 6 6 6 4 5
24 22 22 22 20 19 18 16 15 13 12 10 8 10 9 10 6 5 5 4 3 3
25 24 24 23 22 21 19 17 15 14 13 11 9 10 9 10 5 4 3 3 2 3
25 25 25 24 23 21 19 17 15 14 13 11 11 9 11 10 6 6 5 4 4 1
25 25 24 24 23 22 20 17 16 14 13 12 10 10 10 12 6 7 6 6 5 3
Wind_Direction
148 150 147 147 142 139 131 114 99 93 86 76 76 74 68 64 63 60 53 45 44 44
153 153 149 147 143 139 129 117 115 105 96 85 80 77 78 77 74 67 56 47 44 42
158 157 155 152 145 147 136 133 124 112 104 96 87 89 90 81 73 71 59 51 46 43
163 160 156 150 151 152 143 140 133 122 117 108 102 94 90 88 79 73 66 56 47 42
164 162 160 155 161 154 148 144 140 131 125 118 103 95 92 87 80 76 67 54 47 39
167 166 165 162 162 158 154 149 144 137 135 120 107 102 94 91 86 78 69 56 50 41
173 171 168 164 162 160 158 150 143 142 136 120 115 110 100 96 92 84 75 65 56 47
175 171 166 164 164 163 161 154 150 144 136 128 122 123 113 107 97 92 84 73 63 53
174 171 168 168 167 165 162 158 154 148 151 148 138 146 141 118 109 96 88 79 68 54
176 174 173 171 171 169 167 162 159 152 150 146 146 148 145 124 117 105 91 81 73 60
177 176 177 177 177 175 173 169 164 161 159 157 161 159 153 132 125 120 111 93 77 67
178 180 180 182 181 180 176 173 170 169 169 165 169 177 164 151 166 154 149 145 108 113
181 184 185 183 184 182 181 177 174 175 177 174 169 189 180 174 212 199 181 179 184 335
185 188 186 186 185 184 182 179 177 180 181 182 182 189 185 186 207 205 199 199 198 224
Height
805 808 810 813 816 818 821 822 823 822 822 824 825 825 823 823 824 826 826 826 823 823
806 808 811 813 816 819 821 821 825 823 824 825 826 825 825 826 827 827 828 826 825 824
806 809 812 813 815 819 820 823 824 824 825 827 827 828 827 827 829 828 828 828 827 826
805 808 811 813 816 820 820 822 824 824 827 828 829 828 828 829 830 830 830 830 829 828
803 806 810 812 817 819 821 822 824 825 827 829 828 829 829 830 831 832 832 831 831 829
801 805 808 812 816 819 821 822 824 825 828 828 828 830 830 831 833 833 834 833 833 832
800 803 807 811 815 818 821 822 823 825 827 827 829 830 831 833 834 834 835 835 834 834
798 801 805 809 814 817 820 821 823 824 826 827 828 830 832 834 835 835 836 836 836 835
795 798 803 808 812 816 818 820 822 823 824 825 826 828 831 833 835 836 837 837 837 837
790 795 800 806 810 814 816 818 820 821 823 825 826 828 830 832 835 836 836 837 837 838
787 791 798 803 807 811 814 816 818 820 822 825 826 828 830 832 835 836 837 837 837 838
782 788 794 799 803 808 810 813 815 818 821 824 826 827 829 831 835 836 836 836 836 837
780 786 791 795 800 804 807 809 813 817 820 822 825 826 827 830 833 834 835 836 836 835
779 783 787 793 797 801 804 807 811 816 819 821 824 825 826 829 831 832 833 834 835 835